sat.trackr.live / text

‹ back to catalog

STARLINK-3716

NORAD 52092 · 2022-029E

PAYLOAD ACTIVE UNKNOWN

§ Identity

Operator
Country
US
Launch date
2022-03-19
Launch site
AFETR
Launch vehicle
Mass (kg)
RCS (m²)

Purposes: comms

External: N2YO · Heavens-Above · Gunter

§ Orbital elements

Epoch: 2026-09-20T04:35:01.766688Z

Period
93.51 min
Inclination
53.1629°
Eccentricity
0.0001691
Mean motion
15.39899401 rev/d
Perigee alt
445.3 km
Apogee alt
447.6 km
Semi-major
6,824.5 km
B*
9.1909e-5
RAAN
286.4825°
Arg perigee
78.3678°
Mean anomaly
281.7517°
Rev number
25,014

§ Raw data

STARLINK-37161 52092U 22029E   26263.19099267  .00003311  00000+0  91909-4 0  99942 52092  53.1629 286.4825 0001691  78.3678 281.7517 15.39899401250149

JSON: /api/v1/satellites/52092 · /tle

For live sub-satellite position, see the globe view (requires WebGL).

§ Visibility from observer

Set your observer location to see the next 7 days of passes ≥ 10°. The values pass through the URL so the page stays shareable.

No JS? Fill the form by hand. The geolocation button needs JavaScript.